| time (UTC) | temp F | wind direction | speed MPH | gust MPH | rain 1hr in | rain 24hr in | rain mn in | humidity % | barometer mb |
| 20260510200034 | 69 | 329 | 2.0 | 8.0 | 0.00 | 0.00 | 0.00 | 59 | 1019.6 |
| 20260510194533 | 69 | 332 | 2.0 | 7.0 | 0.00 | 0.00 | 0.00 | 60 | 1019.4 |
| 20260510193106 | 70 | 325 | 2.0 | 8.0 | 0.00 | 0.00 | 0.00 | 62 | 1019.3 |
| 20260510191535 | 69 | 334 | 2.0 | 10.0 | 0.00 | 0.00 | 0.00 | 62 | 1019.3 |
| 20260510184531 | 68 | 30 | 2.0 | 7.0 | 0.00 | 0.00 | 0.00 | 63 | 1019.2 |
| 20260510183107 | 68 | 31 | 0.0 | 5.0 | 0.00 | 0.00 | 0.00 | 63 | 1019.4 |
| 20260510181606 | 68 | 95 | 1.0 | 5.0 | 0.00 | 0.00 | 0.00 | 63 | 1019.3 |
| 20260510180034 | 66 | 101 | 1.0 | 4.0 | 0.00 | 0.00 | 0.00 | 65 | 1019.4 |
| 20260510173038 | 62 | 86 | 0.0 | 3.0 | 0.00 | 0.00 | 0.00 | 68 | 1019.6 |
| 20260510171642 | 62 | 95 | 0.0 | 3.0 | 0.00 | 0.00 | 0.00 | 67 | 1019.6 |
| 20260510170035 | 61 | 116 | 0.0 | 3.0 | 0.00 | 0.00 | 0.00 | 67 | 1019.6 |
| 20260510163030 | 61 | 152 | 0.0 | 3.0 | 0.00 | 0.00 | 0.00 | 72 | 1019.6 |
| 20260510161531 | 59 | 77 | 0.0 | 2.0 | 0.00 | 0.00 | 0.00 | 73 | 1019.6 |
| 20260510160108 | 59 | 122 | 0.0 | 4.0 | 0.00 | 0.00 | 0.00 | 75 | 1019.6 |
| 20260510153141 | 55 | 112 | 0.0 | 0.0 | 0.00 | 0.00 | 0.00 | 82 | 1019.3 |
| 20260510150029 | 51 | 116 | 1.0 | 2.0 | 0.00 | 0.00 | 0.00 | 87 | 1019.5 |
| 20260510144530 | 50 | 196 | 1.0 | 4.0 | 0.00 | 0.00 | 0.00 | 89 | 1019.1 |
| 20260510143033 | 49 | 225 | 0.0 | 0.0 | 0.00 | 0.00 | 0.00 | 92 | 1019.1 |
| 20260510141537 | 48 | 225 | 0.0 | 2.0 | 0.00 | 0.00 | 0.00 | 93 | 1019.0 |
| 20260510134532 | 44 | 225 | 0.0 | 0.0 | 0.00 | 0.00 | 0.00 | 94 | 1019.0 |
| 20260510133033 | 43 | 220 | 0.0 | 2.0 | 0.00 | 0.00 | 0.00 | 94 | 1019.0 |
| 20260510131535 | 43 | 185 | 0.0 | 2.0 | 0.00 | 0.00 | 0.00 | 93 | 1018.9 |
| 20260510130107 | 42 | 204 | 0.0 | 2.0 | 0.00 | 0.00 | 0.00 | 93 | 1019.0 |
| 20260510124530 | 42 | 215 | 0.0 | 3.0 | 0.00 | 0.00 | 0.00 | 93 | 1018.9 |
| 20260510111536 | 42 | 201 | 0.0 | 0.0 | 0.00 | 0.00 | 0.00 | 91 | 1018.6 |
| 20260510110106 | 42 | 202 | 0.0 | 2.0 | 0.00 | 0.00 | 0.00 | 91 | 1018.5 |
| 20260510104533 | 43 | 210 | 0.0 | 3.0 | 0.00 | 0.00 | 0.00 | 91 | 1018.8 |
| 20260510103031 | 43 | 225 | 0.0 | 1.0 | 0.00 | 0.00 | 0.00 | 90 | 1018.9 |
| 20260510094533 | 45 | 225 | 1.0 | 2.0 | 0.00 | 0.00 | 0.00 | 89 | 1018.5 |
| 20260510093029 | 45 | 225 | 0.0 | 3.0 | 0.00 | 0.00 | 0.00 | 88 | 1018.6 |
| 20260510090035 | 46 | 135 | 0.0 | 0.0 | 0.00 | 0.00 | 0.00 | 87 | 1018.8 |
| 20260510084535 | 46 | 159 | 0.0 | 2.0 | 0.00 | 0.00 | 0.00 | 86 | 1018.8 |
| 20260510083032 | 46 | 202 | 0.0 | 2.0 | 0.00 | 0.00 | 0.00 | 86 | 1018.9 |
| 20260510081607 | 47 | 191 | 1.0 | 2.0 | 0.00 | 0.00 | 0.00 | 84 | 1018.9 |
| 20260510080034 | 47 | 202 | 0.0 | 2.0 | 0.00 | 0.00 | 0.00 | 83 | 1019.0 |
| 20260510074533 | 48 | 202 | 0.0 | 2.0 | 0.00 | 0.00 | 0.00 | 82 | 1019.0 |
| 20260510071531 | 49 | 218 | 1.0 | 3.0 | 0.00 | 0.00 | 0.00 | 82 | 1019.1 |
| 20260510070035 | 49 | 225 | 0.0 | 1.0 | 0.00 | 0.00 | 0.00 | 81 | 1019.0 |
| 20260510063031 | 50 | 225 | 0.0 | 1.0 | 0.00 | 0.00 | 0.00 | 79 | 1018.9 |
| 20260510061534 | 51 | 225 | 0.0 | 1.0 | 0.00 | 0.00 | 0.00 | 80 | 1018.8 |
| 20260510060141 | 51 | 225 | 0.0 | 3.0 | 0.00 | 0.00 | 0.00 | 79 | 1018.8 |
| 20260510054528 | 52 | 187 | 0.0 | 3.0 | 0.00 | 0.00 | 0.00 | 78 | 1018.7 |
| 20260510053032 | 53 | 224 | 0.0 | 3.0 | 0.00 | 0.00 | 0.00 | 77 | 1018.7 |
| 20260510051529 | 54 | 202 | 0.0 | 3.0 | 0.00 | 0.00 | 0.00 | 75 | 1018.6 |
| 20260510050035 | 55 | 209 | 0.0 | 3.0 | 0.00 | 0.00 | 0.00 | 74 | 1018.4 |
| 20260510044647 | 57 | 213 | 1.0 | 4.0 | 0.00 | 0.00 | 0.00 | 73 | 1018.3 |
| 20260510043035 | 58 | 216 | 1.0 | 4.0 | 0.00 | 0.00 | 0.00 | 70 | 1018.2 |
| 20260510041641 | 60 | 202 | 0.0 | 1.0 | 0.00 | 0.00 | 0.00 | 69 | 1018.0 |
| 20260510040036 | 61 | 193 | 0.0 | 3.0 | 0.00 | 0.00 | 0.00 | 67 | 1017.8 |
| 20260510033030 | 65 | 220 | 0.0 | 3.0 | 0.00 | 0.00 | 0.00 | 60 | 1017.5 |
| 20260510031650 | 67 | 202 | 0.0 | 0.0 | 0.00 | 0.00 | 0.00 | 57 | 1017.4 |
| 20260510030033 | 68 | 202 | 0.0 | 0.0 | 0.00 | 0.00 | 0.00 | 55 | 1017.5 |
| 20260510023105 | 71 | 202 | 2.0 | 3.0 | 0.00 | 0.00 | 0.00 | 52 | 1017.4 |
| 20260510021534 | 72 | 290 | 0.0 | 4.0 | 0.00 | 0.00 | 0.00 | 51 | 1017.3 |
| 20260510014530 | 74 | 337 | 0.0 | 0.0 | 0.00 | 0.00 | 0.00 | 47 | 1017.5 |
| 20260510013035 | 73 | 337 | 0.0 | 0.0 | 0.00 | 0.00 | 0.00 | 45 | 1017.6 |
| 20260510010030 | 78 | 337 | 0.0 | 1.0 | 0.00 | 0.00 | 0.00 | 40 | 1017.8 |
| 20260510004529 | 79 | 297 | 0.0 | 2.0 | 0.00 | 0.00 | 0.00 | 38 | 1017.7 |
| 20260510003033 | 79 | 292 | 0.0 | 1.0 | 0.00 | 0.00 | 0.00 | 36 | 1017.8 |
| 20260509234535 | 78 | 302 | 0.0 | 2.0 | 0.00 | 0.00 | 0.00 | 36 | 1018.2 |
| 20260509233149 | 77 | 329 | 1.0 | 6.0 | 0.00 | 0.00 | 0.00 | 36 | 1018.5 |
| 20260509231533 | 77 | 343 | 1.0 | 6.0 | 0.00 | 0.00 | 0.00 | 35 | 1018.7 |
| 20260509230035 | 78 | 5 | 1.0 | 7.0 | 0.00 | 0.00 | 0.00 | 35 | 1019.0 |
| 20260509224531 | 78 | 342 | 1.0 | 6.0 | 0.00 | 0.00 | 0.00 | 37 | 1019.2 |
| 20260509223030 | 78 | 319 | 1.0 | 6.0 | 0.00 | 0.00 | 0.00 | 39 | 1019.6 |
| 20260509221536 | 77 | 350 | 1.0 | 5.0 | 0.00 | 0.00 | 0.00 | 40 | 1019.8 |
| 20260509214532 | 76 | 343 | 1.0 | 5.0 | 0.00 | 0.00 | 0.00 | 39 | 1020.2 |
| 20260509213034 | 75 | 359 | 1.0 | 6.0 | 0.00 | 0.00 | 0.00 | 37 | 1020.5 |
| 20260509211605 | 75 | 357 | 3.0 | 8.0 | 0.00 | 0.00 | 0.00 | 39 | 1020.7 |
| 20260509204537 | 74 | 349 | 2.0 | 7.0 | 0.00 | 0.00 | 0.00 | 45 | 1021.0 |
| 20260509203032 | 74 | 355 | 2.0 | 7.0 | 0.00 | 0.00 | 0.00 | 47 | 1021.1 |
| 20260509201536 | 73 | 348 | 2.0 | 6.0 | 0.00 | 0.00 | 0.00 | 48 | 1021.3 |